User: anonymous   Login
Location: Unspecified
(0.0000°N, 0.0000°E)
Time: 00:45:34
(UTC+00:00)
Language:

Vanguard 2 - Orbit

View from above orbital plane
View from above orbital plane
View from above satellite
View from above satellite

Ground track
Ground track

The orbit data is extracted from the following two-line orbital elements,

1    11U 59001A   18346.85833314  .00000308  00000-0  16521-3 0  9993
2    11  32.8701 329.9442 1468325  12.1767 351.0667 11.85583343551113
Epoch (UTC): 12 December 2018 20:35:59
Eccentricity: 0.1468325
inclination: 32.8701°
perigee height: 553 km
apogee height: 2939 km
right ascension of ascending node: 329.9442°
argument of perigee: 12.1767°
revolutions per day: 11.85583343
mean anomaly at epoch: 351.0667°
orbit number at epoch: 55111

The dashed part of the orbit path shows where the satellite is in the earth's shadow,  

DLR